EDT,Max TemperatureF,Mean TemperatureF,Min TemperatureF,Max Dew PointF,MeanDew PointF,Min DewpointF,Max Humidity, Mean Humidity, Min Humidity, Max Sea Level PressureIn, Mean Sea Level PressureIn, Min Sea Level PressureIn, Max VisibilityMiles, Mean VisibilityMiles, Min VisibilityMiles, Max Wind SpeedMPH, Mean Wind SpeedMPH, Max Gust SpeedMPH,PrecipitationIn, CloudCover, Events, WindDirDegrees
2011-10-1,69,60,52,61,50,40,94,70,37,29.93,29.80,29.71,10.0,10.0,10.0,15,9,22,0.00,1,,301
2011-10-2,66,55,46,44,41,37,80,67,39,30.05,29.97,29.92,10.0,10.0,10.0,15,9,24,0.00,1,,285
2011-10-3,70,56,42,47,41,36,93,64,32,30.14,30.08,30.04,10.0,9.6,2.5,17,4,25,0.00,0,,275
2011-10-4,72,60,48,50,47,45,93,69,41,30.19,30.16,30.12,10.0,10.0,10.0,16,6,20,0.00,0,,317
2011-10-5,75,62,48,55,52,47,93,71,43,30.24,30.19,30.15,10.0,9.9,8.0,10,4,,0.00,0,,314
2011-10-6,78,64,51,59,53,49,100,78,39,30.34,30.26,30.21,10.0,6.7,0.5,17,3,25,0.00,0,Fog,52
2011-10-7,75,66,57,58,55,52,86,71,49,30.43,30.38,30.32,10.0,10.0,10.0,16,8,22,0.00,0,,50
2011-10-8,75,66,57,60,56,53,89,73,55,30.45,30.41,30.38,10.0,10.0,10.0,17,9,22,0.01,0,,43
2011-10-9,75,68,62,63,61,58,93,79,66,30.38,30.33,30.27,10.0,10.0,10.0,18,11,26,0.00,1,,50
2011-10-10,70,67,64,66,64,60,93,88,76,30.26,30.15,30.05,10.0,10.0,10.0,14,11,18,0.00,4,Rain,60
2011-10-11,73,68,64,67,63,54,90,80,55,30.04,29.97,29.91,10.0,9.4,3.0,21,10,31,0.22,7,Rain,77
2011-10-12,84,76,69,72,69,63,94,81,63,29.92,29.84,29.77,10.0,9.4,1.0,14,7,22,0.17,6,Rain-Thunderstorm,117
2011-10-13,82,76,69,72,69,65,96,83,62,29.82,29.73,29.65,10.0,9.9,8.0,17,8,24,0.00,3,Rain-Thunderstorm,185
2011-10-14,78,68,59,66,57,46,93,68,37,29.87,29.69,29.60,10.0,9.9,9.0,20,9,29,0.01,2,,240
2011-10-15,81,66,52,52,49,44,89,60,30,30.01,29.93,29.88,10.0,10.0,10.0,18,7,26,0.00,0,,246
2011-10-16,77,62,48,50,45,38,86,59,25,30.15,30.06,30.02,10.0,10.0,10.0,10,3,,0.00,0,,237
2011-10-17,86,70,57,63,57,51,93,66,33,30.01,29.94,29.88,10.0,10.0,10.0,13,8,18,0.00,0,,220
2011-10-18,84,71,60,70,65,58,100,86,54,29.93,29.83,29.65,10.0,5.8,0.2,25,6,31,0.56,4,Fog-Rain,180
2011-10-19,79,75,66,73,71,55,100,90,66,29.63,29.47,29.34,10.0,7.8,0.5,22,10,30,1.24,7,Fog-Rain,173
2011-10-20,66,57,50,50,43,41,80,62,43,29.98,29.79,29.56,10.0,10.0,10.0,21,15,31,0.00,0,,236
2011-10-21,66,55,44,49,44,40,93,70,43,30.09,30.05,29.99,10.0,10.0,10.0,10,6,,0.00,0,,252
2011-10-22,70,58,46,54,50,43,97,78,54,30.10,30.07,30.05,10.0,9.6,4.0,12,3,16,0.00,2,,41
2011-10-23,71,62,55,56,52,50,87,73,51,30.12,30.09,30.07,10.0,10.0,10.0,14,9,20,0.00,2,,44
2011-10-24,72,62,52,55,52,47,93,75,47,30.09,30.05,29.98,10.0,10.0,10.0,12,8,,0.00,2,,353
2011-10-25,71,60,48,50,45,38,89,63,31,30.24,30.17,30.08,10.0,10.0,10.0,15,5,22,0.00,0,,7
2011-10-26,75,59,43,56,48,40,93,69,27,30.18,30.06,29.96,10.0,10.0,10.0,14,4,20,0.00,0,,219
2011-10-27,80,68,57,60,56,51,86,68,39,29.95,29.87,29.78,10.0,10.0,10.0,21,9,29,0.00,0,,232
2011-10-28,70,62,53,55,48,44,89,72,53,30.11,30.03,29.90,10.0,10.0,10.0,23,14,32,0.00,7,,26
2011-10-29,59,52,46,55,47,34,94,79,63,30.08,29.89,29.82,10.0,10.0,10.0,30,12,36,0.00,6,,320
2011-10-30,59,50,41,37,33,26,80,60,30,30.36,30.26,30.10,10.0,10.0,10.0,20,13,29,0.00,0,,10
2011-10-31,63,52,43,55,47,36,100,77,62,30.35,30.21,30.09,10.0,10.0,10.0,18,9,25,0.26,5,Rain,27